Regional Weather Roundup
Issued by NWS

Home | Current Version | Previous Version | Text Only | Print | Product List | Glossary Off
Versions: 1 2 3 4 5 6 7 8 9 10 11 12 13 14 15 16 17 18 19 20 21 22 23 24 25 26 27 28 29 30 31 32 33 34 35 36 37 38 39 40 41 42 43 44 45 46 47 48 49 50

000
ASUS45 KCYS 100110
RWRWY

WYOMING REGIONAL WEATHER ROUNDUP
NATIONAL WEATHER SERVICE CHEYENNE WY
700 PM MDT WED JUL 09 2014

NOTE:  "FAIR" INDICATES FEW OR NO CLOUDS BELOW 12,000 FEET
WITH NO SIGNIFICANT WEATHER AND/OR OBSTRUCTIONS TO VISIBILITY.

WYZ001-100200-
YELLOWSTONE NATIONAL PARK

CITY           SKY/WX    TMP DP  RH WIND       PRES   REMARKS
LK YELLOWSTONE   N/A     73  39  29 W5        30.20S
W YELLOWSTONE  NOT AVBL

$$
WYZ002>013-054>058-071-098>099-100200-
NORTHERN WYOMING

CITY           SKY/WX    TMP DP  RH WIND       PRES   REMARKS
JACKSON        NOT AVBL
CODY           NOT AVBL
GREYBULL       PTSUNNY   94  37  13 NW3       29.80F
WORLAND        MOSUNNY   89  53  29 N10       29.80F
SHERIDAN       PTSUNNY   87  56  34 E3        29.87F
BUFFALO        MOSUNNY   85  48  27 E7        29.96F
GILLETTE       MOSUNNY   84  51  31 E10       29.92F
HULETT         FAIR      75  55  50 MISG      29.97
NEWCASTLE      FAIR      81  52  36 SE10G17   29.95

$$
WYZ014>020-022>026-101>103-100200-
CENTRAL WYOMING

CITY           SKY/WX    TMP DP  RH WIND       PRES   REMARKS
BIG PINEY      PTSUNNY   86  36  16 NW12      30.11F
PINEDALE       MOCLDY    81  37  21 NW10      30.13R
DUBOIS         FAIR      81  32  17 NW10G20   30.10S
LANDER         MOSUNNY   95  30  10 N6        29.89F
RIVERTON       SUNNY     93  30  10 E9        29.90F
CASPER         MOSUNNY   90  36  14 VRB7      29.93F
DOUGLAS        MOSUNNY   85  56  37 E17G26    29.96S

$$
WYZ021-027>030-104>119-100200-
SOUTHERN WYOMING

CITY           SKY/WX    TMP DP  RH WIND       PRES   REMARKS
EVANSTON       PTSUNNY   75  46  35 S24G33    30.17S
KEMMERER       PTCLDY   N/A N/A N/A S20G25    30.17R
FORT BRIDGER   CLOUDY    74  46  37 SW23      30.21R
ROCK SPRINGS   PTSUNNY   84  33  16 W16       30.08S
DIXON          FAIR      83  34  17 S21       30.11R
RAWLINS        MOSUNNY   88  24  10 W9        30.06S
SARATOGA       FAIR      86  32  14 W16G24    30.10S
LARAMIE        MOSUNNY   79  48  33 SE15      30.13R
CHEYENNE       MOSUNNY   81  41  24 E12       30.07S
TORRINGTON     SUNNY     89  51  27 SE7       29.90S

$$


USA.gov is the U.S. government's official web portal to all federal, state and local government web resources and services.